Volver al catálogo

DMSP 5D-2 F13 DEB

ActivoSSO
NORAD 40469·DEBRIS·🇺🇸 United States

Lanzado Mar 24, 1995 desde Vandenberg Space Force Base

Loading…

Próximos Pases (próximas 24 horas)

TLE

ActualizadoSource: Space-Track

Época: Sep 13, 2026, 10:22 UTC

1 40469U 95015BM  26256.43204560  .00006153  00000-0  12506-2 0  9999
2 40469  98.5596 327.1480 0021348 177.6703 182.4600 14.61344056602183

Sigue DMSP 5D-2 F13 DEB en tiempo real con AllMySat

Download on the App Store